Location: Chuathbaluk
(61.5726°N, 159.2454°W)
Time: 23:53:21
(UTC+00:00)

Explorer 7 - Pass Details

Date: 10 December 2021
Orbit: 483 x 674 km, 50.3° (Epoch: 21 January)

Event Time Altitude Azimuth Distance (km) Brightness Sun altitude
Exits shadow 15:18:46 15° 155° (SSE) 1,591 9.3 -28.5°
Drops below altitude 10° 15:20:38 10° 129° (SE) 1,850 10.1 -28.3°
Sets 15:23:36 0° 106° (ESE) 2,702 11.4 -27.9°
